Terminal Aerodrome Forecast
Issued by NWS

Home | Current Version | Previous Version | Text Only | Print | Product List | Glossary On
Versions: 1 2 3 4 5 6 7 8 9 10 11 12
000
FTUS43 KDVN 062320
TAFCID
TAF
KCID 062320Z 0700/0724 26015G20KT P6SM SKC
     FM070100 24010KT P6SM SCT150
     FM071300 01012KT P6SM VCSH BKN050 BKN100
     FM071800 35009KT P6SM BKN250=

USA.gov is the U.S. government's official web portal to all federal, state and local government web resources and services.